Location: Clover
(42.5131°N, 114.6874°W)
Time: 12:55:56
(UTC+00:00)

Explorer 7 - Pass Details

Date: 15 December 2025
Orbit: 433 x 550 km, 50.2° (Epoch: 13 January)

Event Time Altitude Azimuth Distance (km) Brightness Sun altitude
Rises 02:07:02 0° 275° (W) 2,455 11.4 -21.4°
Reaches altitude 10° 02:09:25 10° 288° (WNW) 1,568 10.0 -21.8°
Enters shadow 02:12:03 26° 335° (NNW) 911 8.0 -22.3°
